Tracking 19651 objects as of 22-Apr-2019
HD Live streaming from Space Station
objects crossing your sky now

UNITE

Track UNITE now!
10-day predictions


NORAD ID: 44031
Int'l Code: 1998-067PX
Perigee: 407.5 km
Apogee: 411.5 km
Inclination: 51.6 °
Period: 92.6 minutes
Semi major axis: 6780 km
RCS: Unknown
Launch date: November 20, 1998
Source: United States (US)
Launch site: TYURATAM MISSILE AND SPACE COMPLEX (TTMTR)
aabbcc
Your satellite tracking list
Your tracking list is empty




NASA's NSSDC Master Catalog

Two Line Element Set (TLE):
1 44031U 98067PX  19111.87828963 +.00006867 +00000-0 +10773-3 0  9994
2 44031 051.6389 280.1986 0002967 286.1712 073.8952 15.54932775012545
Source of the keplerian elements: AFSPC